DW9750 Weather Reports


time (UTC)temp
C
wind
direction
speed
KPH
gust
KPH
rain 1hr
cm
rain 24hr
cm
rain mn
cm
humidity
%
barometer
mb
20260902161518 31 170 3.2 16.1 0.00 0.00 0.00 52 1013.6
20260902160015 31 209 3.2 14.5 0.00 0.00 0.00 54 1013.6
20260902154511 30 319 1.6 6.4 0.00 0.00 0.00 61 1013.6
20260902153010 30 316 3.2 8.0 0.00 0.00 0.00 63 1013.6
20260902151504 28 104 1.6 6.4 0.00 0.00 0.00 68 1013.8
20260902144557 27 282 1.6 4.8 0.00 0.00 0.00 75 1013.9
20260902143058 26 239 0.0 4.8 0.00 0.00 0.00 78 1014.0
20260902141556 25 7 0.0 1.6 0.00 0.00 0.00 80 1014.0
20260902140054 23 64 0.0 0.0 0.00 0.00 0.00 82 1014.0
20260902134554 22 68 0.0 0.0 0.00 0.00 0.00 84 1014.0
20260902133057 21 68 0.0 0.0 0.00 0.00 0.00 87 1014.0
20260902131551 21 68 0.0 0.0 0.00 0.00 0.00 89 1013.9
20260902130048 20 68 0.0 0.0 0.00 0.00 0.00 90 1013.7
20260902124549 20 68 0.0 0.0 0.00 0.00 0.00 89 1013.5
20260902123045 20 68 0.0 0.0 0.00 0.00 0.00 89 1013.3
20260902121546 20 68 0.0 0.0 0.00 0.00 0.00 88 1013.3
20260902120043 20 68 0.0 0.0 0.00 0.00 0.00 88 1013.2
20260902114542 20 68 0.0 0.0 0.00 0.00 0.00 88 1013.2
20260902113039 21 68 0.0 0.0 0.00 0.00 0.00 87 1013.2
20260902111538 21 68 0.0 0.0 0.00 0.00 0.00 87 1013.1
20260902110047 21 68 0.0 0.0 0.00 0.00 0.00 86 1013.1
20260902104552 21 68 0.0 0.0 0.00 0.00 0.00 85 1013.1
20260902103047 21 68 0.0 0.0 0.00 0.00 0.00 84 1013.1
20260902101532 22 68 0.0 0.0 0.00 0.00 0.00 85 1013.1
20260902100030 22 68 0.0 0.0 0.00 0.00 0.00 83 1013.1
20260902094528 22 68 0.0 0.0 0.00 0.00 0.00 81 1013.1
20260902093025 23 68 0.0 0.0 0.00 0.00 0.00 81 1013.1
20260902091525 23 68 0.0 0.0 0.00 0.00 0.00 80 1013.1
20260902090028 23 68 0.0 0.0 0.00 0.00 0.00 80 1013.2
20260902084623 23 68 0.0 0.0 0.00 0.00 0.00 80 1013.1
20260902083021 23 68 0.0 0.0 0.00 0.00 0.00 81 1013.3
20260902081520 23 68 0.0 0.0 0.00 0.00 0.00 80 1013.3
20260902080021 23 68 0.0 0.0 0.00 0.00 0.00 78 1013.3
20260902074514 24 68 0.0 0.0 0.00 0.00 0.00 77 1013.3
20260902073011 25 68 0.0 0.0 0.00 0.00 0.00 75 1013.3
20260902071508 25 83 0.0 3.2 0.00 0.00 0.00 74 1013.2
20260902070008 25 76 1.6 4.8 0.00 0.00 0.00 73 1013.2
20260902064509 26 67 1.6 3.2 0.00 0.00 0.00 72 1013.1
20260902063008 26 74 0.0 4.8 0.00 0.00 0.00 71 1013.2
20260902061622 26 92 1.6 8.0 0.00 0.00 0.00 70 1013.0
20260902054556 26 99 3.2 6.4 0.00 0.00 0.00 68 1012.9
20260902053054 26 78 3.2 8.0 0.00 0.00 0.00 67 1012.9
20260902051602 27 93 4.8 8.0 0.00 0.00 0.00 66 1012.9
20260902050048 27 101 3.2 8.0 0.00 0.00 0.00 65 1012.7
20260902044605 27 96 3.2 6.4 0.00 0.00 0.00 64 1012.7
20260902043048 26 87 1.6 4.8 0.00 0.00 0.00 64 1012.7
20260902041550 26 80 0.0 0.0 0.00 0.00 0.00 64 1012.7
20260902040046 26 70 0.0 0.0 0.00 0.00 0.00 64 1012.7
20260902034545 26 70 0.0 3.2 0.00 0.00 0.00 62 1012.5
20260902033045 27 70 0.0 0.0 0.00 0.00 0.00 60 1012.4
20260902031556 27 70 0.0 0.0 0.00 0.00 0.00 59 1012.3
20260902030042 28 70 0.0 0.0 0.00 0.00 0.00 57 1012.0
20260902024551 28 70 0.0 0.0 0.00 0.00 0.00 56 1011.9
20260902023044 28 70 1.6 3.2 0.00 0.00 0.00 55 1011.5
20260902021546 29 70 0.0 0.0 0.00 0.00 0.00 55 1011.2
20260902020045 29 70 0.0 3.2 0.00 0.00 0.00 52 1011.1
20260902014541 30 91 0.0 3.2 0.00 0.00 0.00 50 1010.8
20260902013043 30 91 0.0 3.2 0.00 0.00 0.00 49 1010.7
20260902011543 31 89 1.6 4.8 0.00 0.00 0.00 48 1010.5
20260902010043 31 92 1.6 6.4 0.00 0.00 0.00 46 1010.4
20260902004541 32 85 1.6 4.8 0.00 0.00 0.00 44 1010.4
20260902003039 33 115 1.6 4.8 0.00 0.00 0.00 43 1010.5
20260902001539 34 97 1.6 8.0 0.00 0.00 0.00 41 1010.4
20260902000038 34 109 4.8 12.9 0.00 0.00 0.00 41 1010.5
20260901234536 35 92 8.0 14.5 0.00 0.00 0.00 40 1010.3
20260901233036 36 206 3.2 9.7 0.00 0.00 0.00 38 1010.3
20260901231543 36 90 3.2 11.3 0.00 0.00 0.00 37 1010.3
20260901230038 36 177 6.4 11.3 0.00 0.00 0.00 37 1010.2
20260901224536 36 175 3.2 8.0 0.00 0.00 0.00 38 1010.3
20260901223034 36 114 1.6 16.1 0.00 0.00 0.00 38 1010.3
20260901221534 36 303 0.0 6.4 0.00 0.00 0.00 36 1010.3
20260901220032 36 177 3.2 11.3 0.00 0.00 0.00 37 1010.3
20260901214536 37 9 4.8 11.3 0.00 0.00 0.00 36 1010.4
20260901213033 36 214 0.0 14.5 0.00 0.00 0.00 38 1010.6
20260901211526 37 265 3.2 14.5 0.00 0.00 0.00 37 1010.8
20260901210023 36 195 3.2 9.7 0.00 0.00 0.00 38 1011.1
20260901204522 36 183 4.8 12.9 0.00 0.00 0.00 37 1011.3
20260901203020 36 298 4.8 12.9 0.00 0.00 0.00 40 1011.5
20260901201517 36 82 6.4 11.3 0.00 0.00 0.00 38 1011.9
20260901200017 36 274 4.8 14.5 0.00 0.00 0.00 38 1011.9
20260901194511 35 184 6.4 12.9 0.00 0.00 0.00 39 1012.2
20260901193011 35 239 6.4 14.5 0.00 0.00 0.00 40 1012.3
20260901191513 35 251 4.8 9.7 0.00 0.00 0.00 40 1012.5
20260901190005 35 40 1.6 4.8 0.00 0.00 0.00 40 1012.7
20260901184503 35 91 3.2 8.0 0.00 0.00 0.00 43 1013.1
20260901183120 34 125 1.6 11.3 0.00 0.00 0.00 42 1013.3
20260901181558 33 161 3.2 11.3 0.00 0.00 0.00 43 1013.5
20260901180057 33 166 4.8 12.9 0.00 0.00 0.00 43 1013.8
20260901174554 33 131 3.2 11.3 0.00 0.00 0.00 42 1014.1
20260901173119 33 173 4.8 11.3 0.00 0.00 0.00 47 1014.1
20260901171555 32 120 3.2 11.3 0.00 0.00 0.00 48 1014.3
20260901170054 32 215 3.2 9.7 0.00 0.00 0.00 50 1014.4
20260901164547 32 234 1.6 11.3 0.00 0.00 0.00 51 1014.5
20260901163104 31 173 3.2 12.9 0.00 0.00 0.00 52 1014.6